Location: Montbazon
(47.2835°N, 0.6999°E)
Time: 17:49:38
(UTC+00:00)

Cosmos 1725 Rocket - Pass Details

Date: 08 November 2025
Orbit: 961 x 989 km, 82.9° (Epoch: 10 December)

Event Time Altitude Azimuth Distance (km) Brightness Sun altitude
Rises 04:55:13 0° 350° (N) 3,712 6.9 -19.8°
Reaches altitude 10° 04:57:45 10° 350° (N) 2,761 6.2 -19.4°
Maximum altitude 05:04:06 85° 264° (W) 1,000 3.9 -18.3°
Drops below altitude 10° 05:10:24 10° 176° (S) 2,738 6.5 -17.3°
Sets 05:12:54 0° 176° (S) 3,680 7.2 -16.8°
